{"data":{"norad_id":41862,"intl_designator":"2016-069D","name":"GSAT0214 (GALILEO 18)","alt_names":[],"object_type":"PAYLOAD","status":"ACTIVE","operator":null,"country":"ESA","launch_date":"2016-11-17","launch_site_code":"FRGUI","launch_vehicle":null,"mission":null,"orbit_class":"UNKNOWN","rcs_meters":8.5742,"size_class":null,"mass_kg":null,"dimensions":null,"purposes":["earth_obs","nav"],"wikipedia_slug":null,"has_3d_model":false,"image_url":null,"decayed_at":null,"tle_current":{"epoch":"2026-09-20T03:20:32.108064Z","epoch_age_seconds":45639,"freshness":"FRESH","line1":"1 41862U 16069D   26263.13926051  .00000028  00000+0  00000+0 0  9997","line2":"2 41862  55.5560  98.4527 0001689   2.9500 357.1272  1.70474227 61260","mean_motion":1.70474227,"eccentricity":0.0001689,"inclination_deg":55.556,"raan_deg":98.4527,"arg_perigee_deg":2.95,"mean_anomaly_deg":357.1272,"bstar":0,"rev_number":6126,"period_min":844.70246637341,"perigee_km":23217.157291152,"apogee_km":23227.156270391,"semimajor_km":29600.293780771,"source":"CELESTRAK","updated_at":"2026-09-20T09:00:46.495772Z"}}}